STARLINK-2348 (47888 NORAD) Tracking and Keplerian Element Data

This shows tracking and keplerian element data for the satellite.

Feedback or suggestion? Click here.




ElementValue
Catalog47888
NameSTARLINK-2348
Epoch Orbit197
Epoch Day173.91668981
Epoch Year2021
RAAN79.3981
Inclination53.0476
Eccentricity0.0001325
Argument of Perigee71.6825
Mean Anonmoly75.1523
Mean Motion15.49738313
Decay Rate-0.01081576
L11 47888U 21021AE 21173.91668981 -.01081576 00000-0 -21139-1 0 9990
L22 47888 53.0476 79.3981 0001325 71.6825 75.1523 15.49738313 1973

Live tracking and technical data element details for STARLINK-2348 (NORAD 47888). STARLINK-2348 can be tracked NOW for your location showing map with azimuth and elevation plus other details from your city location.

Track the satellite on the map from your city or location and see movement details for azimuth, elevation, latitude, longitude, range, height, and movement on the map or in text.







IsCatalogInMostPopularTable: catalog: 47888, numindb: 45
Update: records affected: 1



GetName: 47888 STARLINK-2348

Hit Count: updated at: Thu, 24 Jun 2021 02:48:19 GMT